Location: ?????
(31.8092°N, 35.2590°E)
Time: 18:17:18
(UTC+00:00)

SL-4 R/B - Pass Details

Date: 20 June 2021
Orbit: 428 x 662 km, 51.6° (Epoch: 22 July)

Event Time Altitude Azimuth Distance (km) Brightness Sun altitude
Rises 18:35:36 0° 221° (SW) 2,862 5.6 -19.2°
Reaches altitude 10° 18:37:58 10° 220° (SW) 1,926 4.7 -19.6°
Maximum altitude 18:42:22 78° 134° (SE) 581 1.9 -20.2°
Drops below altitude 10° 18:46:26 10° 48° (NE) 1,787 4.6 -20.8°
Sets 18:48:34 0° 47° (NE) 2,638 5.5 -21.1°
